FLOCK 4E'-7 (46814 NORAD) Tracking and Keplerian Element Data

This shows tracking and keplerian element data for the satellite.

Feedback or suggestion? Click here.




ElementValue
Catalog46814
NameFLOCK 4E'-7
Epoch Orbit514
Epoch Day336.87295932
Epoch Year2020
RAAN36.8972
Inclination97.4974
Eccentricity0.0013271
Argument of Perigee202.5498
Mean Anonmoly274.1764
Mean Motion15.1582832
Decay Rate5.161E-05
L11 46814U 20077B 20336.87295932 .00005161 00000-0 27293-3 0 9997
L22 46814 97.4974 36.8972 0013271 202.5498 274.1764 15.15828320 5140

Live tracking and technical data element details for FLOCK 4E'-7 (NORAD 46814). FLOCK 4E'-7 can be tracked NOW for your location showing map with azimuth and elevation plus other details from your city location.

Track the satellite on the map from your city or location and see movement details for azimuth, elevation, latitude, longitude, range, height, and movement on the map or in text.







IsCatalogInMostPopularTable: catalog: 46814, numindb: 10
Update: records affected: 1



GetName: 46814 FLOCK 4E'-7

Hit Count: updated at: Wed, 02 Dec 2020 18:49:42 GMT